AAL3577 MYNN-KFLL

Flight info

Callsign AAL3577
Flight time N/A
Altitude 24000
Route PEACH OLAHS3
Aircraft B38M/M-SDE1FGHILORVWXY/HB1

Departure

Time 2026-05-04 01:07
Airport Lynden Pindling International Airport (MYNN)

Arrival

Time N/A
Airport Fort Lauderdale Hollywood International Airport (KFLL)
Time Latitude Longitude Altitude Speed Heading
2026-05-04 00:53 25.05039 -77.46884 26 ft 0 kts 353°
2026-05-04 01:00 25.04945 -77.46955 27 ft 0 kts 353°
2026-05-04 01:00 25.04985 -77.46969 28 ft 0 kts 136°
2026-05-04 01:03 25.04974 -77.46957 27 ft 4 kts 136°
2026-05-04 01:03 25.04935 -77.46928 27 ft 8 kts 172°
2026-05-04 01:03 25.04898 -77.46983 28 ft 12 kts 287°
2026-05-04 01:04 25.04962 -77.47066 28 ft 16 kts 315°
2026-05-04 01:04 25.05051 -77.47165 28 ft 19 kts 314°
2026-05-04 01:04 25.05155 -77.47281 26 ft 21 kts 316°
2026-05-04 01:04 25.05223 -77.47385 25 ft 13 kts 289°
2026-05-04 01:05 25.05209 -77.47472 25 ft 9 kts 252°
2026-05-04 01:05 25.05188 -77.47531 25 ft 6 kts 248°
2026-05-04 01:05 25.05176 -77.47555 25 ft 0 kts 216°
2026-05-04 01:05 25.05169 -77.47554 25 ft 0 kts 145°
2026-05-04 01:06 25.05165 -77.47550 25 ft 0 kts 134°
2026-05-04 01:06 25.05163 -77.47546 25 ft 2 kts 134°
2026-05-04 01:06 25.05004 -77.47367 27 ft 75 kts 136°
2026-05-04 01:06 25.04439 -77.46742 26 ft 152 kts 135°
2026-05-04 01:07 25.03588 -77.45845 604 ft 169 kts 138°
2026-05-04 01:07 25.02742 -77.45107 1694 ft 160 kts 141°
2026-05-04 01:07 25.01830 -77.44283 2140 ft 179 kts 132°
2026-05-04 01:07 25.01059 -77.43221 2827 ft 172 kts 115°
2026-05-04 01:08 25.00914 -77.41890 3153 ft 185 kts 72°
2026-05-04 01:08 25.01640 -77.40670 3491 ft 201 kts 40°
2026-05-04 01:08 25.02955 -77.39945 3789 ft 222 kts
2026-05-04 01:08 25.04533 -77.40243 4133 ft 243 kts 329°
2026-05-04 01:09 25.05806 -77.41490 4901 ft 246 kts 314°
2026-05-04 01:09 25.07063 -77.42863 5503 ft 256 kts 317°
2026-05-04 01:09 25.08400 -77.44175 6236 ft 259 kts 318°
2026-05-04 01:09 25.09754 -77.45483 6983 ft 262 kts 319°
2026-05-04 01:10 25.11150 -77.46828 7730 ft 265 kts 319°
2026-05-04 01:10 25.12537 -77.48159 8520 ft 266 kts 319°
2026-05-04 01:10 25.13947 -77.49508 9227 ft 271 kts 319°
2026-05-04 01:10 25.15361 -77.50861 10012 ft 272 kts 319°
2026-05-04 01:11 25.16800 -77.52238 10763 ft 275 kts 319°
2026-05-04 01:11 25.18243 -77.53619 11532 ft 277 kts 319°
2026-05-04 01:11 25.19711 -77.55022 12317 ft 277 kts 319°
2026-05-04 01:11 25.21170 -77.56416 13071 ft 279 kts 319°
2026-05-04 01:12 25.22665 -77.57847 13770 ft 283 kts 319°
2026-05-04 01:12 25.24159 -77.59274 14505 ft 286 kts 320°
2026-05-04 01:12 25.25699 -77.60742 15176 ft 291 kts 320°
2026-05-04 01:12 25.27248 -77.62224 15891 ft 293 kts 320°
2026-05-04 01:13 25.28826 -77.63734 16538 ft 298 kts 320°
2026-05-04 01:13 25.30399 -77.65238 17182 ft 301 kts 319°
2026-05-04 01:13 25.32007 -77.66780 17780 ft 307 kts 319°
2026-05-04 01:13 25.33612 -77.68318 18543 ft 305 kts 319°
2026-05-04 01:14 25.35255 -77.69888 19155 ft 309 kts 319°
2026-05-04 01:14 25.36896 -77.71458 19806 ft 311 kts 319°
2026-05-04 01:14 25.38529 -77.73019 20435 ft 312 kts 319°
2026-05-04 01:14 25.40200 -77.74618 21016 ft 315 kts 319°
2026-05-04 01:15 25.41774 -77.76309 21633 ft 316 kts 308°
2026-05-04 01:15 25.42797 -77.78537 22132 ft 322 kts 285°
2026-05-04 01:15 25.42949 -77.81017 22736 ft 326 kts 269°
2026-05-04 01:15 25.42928 -77.83561 23149 ft 328 kts 281°
2026-05-04 01:16 25.43533 -77.86022 23664 ft 327 kts 291°
2026-05-04 01:16 25.44297 -77.88419 24016 ft 332 kts 290°
2026-05-04 01:16 25.44975 -77.90871 24028 ft 330 kts 288°